TimeEST,TemperatureF,Dew PointF,Humidity,Sea Level PressureIn,VisibilityMPH,Wind Direction,Wind SpeedMPH,Gust SpeedMPH,PrecipitationIn,Events,Conditions,WindDirDegrees,DateUTC
12:51 AM,25.0,19.9,81,30.04,-9999.0,NW,8.1,-,N/A,,Unknown,320,2013-03-03 05:51:00
1:51 AM,24.1,19.9,84,30.04,-9999.0,NW,9.2,-,N/A,,Unknown,320,2013-03-03 06:51:00
2:51 AM,26.1,19.0,75,30.01,-9999.0,North,5.8,-,N/A,,Unknown,360,2013-03-03 07:51:00
3:51 AM,25.0,18.0,75,30.01,-9999.0,North,5.8,-,N/A,,Unknown,350,2013-03-03 08:51:00
4:51 AM,24.1,17.1,75,30.01,-9999.0,NNW,5.8,-,N/A,,Unknown,340,2013-03-03 09:51:00
5:51 AM,23.0,18.0,81,30.01,-9999.0,NW,8.1,-,N/A,,Unknown,310,2013-03-03 10:51:00
6:51 AM,21.9,17.1,82,30.02,-9999.0,NW,9.2,17.3,N/A,,Unknown,310,2013-03-03 11:51:00
7:51 AM,23.0,16.0,74,30.04,-9999.0,North,4.6,-,N/A,,Unknown,350,2013-03-03 12:51:00
8:51 AM,23.0,16.0,74,30.03,-9999.0,Variable,6.9,-,N/A,,Unknown,0,2013-03-03 13:51:00
9:51 AM,23.0,16.0,74,30.03,-9999.0,Variable,4.6,-,N/A,,Unknown,0,2013-03-03 14:51:00
10:51 AM,21.9,17.1,82,30.04,-9999.0,NW,8.1,-,N/A,,Unknown,320,2013-03-03 15:51:00
11:51 AM,23.0,16.0,74,30.03,-9999.0,NNW,5.8,-,N/A,,Unknown,340,2013-03-03 16:51:00
12:51 PM,23.0,16.0,74,30.03,-9999.0,NNW,5.8,-,N/A,,Unknown,330,2013-03-03 17:51:00
1:51 PM,23.0,15.1,72,30.02,-9999.0,North,4.6,-,N/A,,Unknown,360,2013-03-03 18:51:00
2:51 PM,21.9,16.0,78,30.02,-9999.0,NNW,5.8,-,N/A,,Unknown,340,2013-03-03 19:51:00
3:51 PM,23.0,15.1,72,30.03,-9999.0,NNW,4.6,-,N/A,,Unknown,340,2013-03-03 20:51:00
4:51 PM,23.0,15.1,72,30.03,-9999.0,NNW,4.6,-,N/A,,Unknown,330,2013-03-03 21:51:00
5:51 PM,21.9,15.1,75,30.04,-9999.0,NNW,5.8,-,N/A,,Unknown,340,2013-03-03 22:51:00
6:51 PM,23.0,16.0,74,30.04,-9999.0,Variable,5.8,-,N/A,,Unknown,0,2013-03-03 23:51:00
7:51 PM,23.0,16.0,74,30.06,-9999.0,NNW,5.8,-,N/A,,Unknown,340,2013-03-04 00:51:00
8:51 PM,21.9,15.1,75,30.07,-9999.0,NNW,8.1,-,N/A,,Unknown,330,2013-03-04 01:51:00
9:51 PM,21.9,14.0,72,30.06,-9999.0,NNW,6.9,-,N/A,,Unknown,340,2013-03-04 02:51:00
10:51 PM,21.9,15.1,75,30.06,-9999.0,Calm,Calm,-,N/A,,Unknown,0,2013-03-04 03:51:00
11:51 PM,23.0,17.1,78,30.06,-9999.0,NW,8.1,-,N/A,,Unknown,310,2013-03-04 04:51:00